Zurück zum Katalog

OPS 9317

IDSCS 7

AktivMilitärMEO
NORAD 2221·PAYLOAD·🇺🇸 United States

Gestartet Jun 16, 1966 von Cape Canaveral Space Force Station

Loading…

Nächste Überflüge (nächste 24 Stunden)

TLE

AktuellSource: Space-Track

Epoche: Sep 14, 2026, 12:12 UTC

1 02221U 66053H   26257.50847543 -.00000119  00000-0  00000-0 0  9997
2 02221   8.6071  46.0964 0082570 177.6960 182.4308  1.06870357 51984

Verfolge OPS 9317 in Echtzeit mit AllMySat

Download on the App Store